EW4276 Weather Reports


Display with metric or nautical units.
time (UTC)temp
F
wind
direction
speed
MPH
gust
MPH
rain 1hr
in
rain 24hr
in
rain mn
in
humidity
%
barometer
mb
20260905214320 71 157 0.0 3.0 0.00 0.41 0.41 93 1012.0
20260905213832 71 155 1.0 5.0 0.00 0.41 0.41 93 1012.0
20260905213324 71 165 0.0 3.0 0.00 0.41 0.41 93 1011.8
20260905212836 71 167 1.0 3.0 0.00 0.41 0.41 93 1011.7
20260905212326 71 157 1.0 3.0 0.00 0.41 0.41 93 1011.8
20260905211818 71 146 0.0 2.0 0.00 0.41 0.41 93 1011.8
20260905211330 71 154 0.0 2.0 0.00 0.41 0.41 93 1011.7
20260905210822 71 49 0.0 3.0 0.04 0.41 0.41 93 1011.4
20260905210318 72 49 1.0 3.0 0.04 0.41 0.41 93 1011.5
20260905205829 72 53 1.0 2.0 0.04 0.41 0.41 92 1011.4
20260905205321 72 51 0.0 3.0 0.04 0.41 0.41 92 1011.6
20260905204833 72 43 0.0 3.0 0.04 0.41 0.41 92 1011.5
20260905204324 72 44 1.0 5.0 0.04 0.41 0.41 92 1011.6
20260905203816 72 53 2.0 5.0 0.04 0.41 0.41 92 1011.8
20260905203329 72 32 2.0 5.0 0.04 0.41 0.41 91 1011.8
20260905202820 72 37 3.0 5.0 0.04 0.41 0.41 91 1011.7
20260905202316 72 51 2.0 7.0 0.04 0.41 0.41 90 1011.8
20260905201848 73 44 3.0 10.0 0.04 0.41 0.41 88 1012.0
20260905201318 74 28 6.0 11.0 0.04 0.41 0.41 85 1012.0
20260905200831 76 311 8.0 12.0 0.00 0.37 0.37 82 1012.0
20260905200322 78 46 6.0 12.0 0.00 0.37 0.37 79 1011.9
20260905195813 78 315 0.0 3.0 0.00 0.37 0.37 78 1011.7
20260905195325 79 314 1.0 3.0 0.00 0.37 0.37 78 1011.7
20260905194817 78 25 0.0 2.0 0.00 0.37 0.37 77 1011.7
20260905194328 79 25 0.0 2.0 0.00 0.69 0.37 76 1011.7
20260905193824 79 88 0.0 2.0 0.00 0.69 0.37 79 1011.7
20260905193335 79 205 0.0 1.0 0.00 0.69 0.37 79 1011.7
20260905192826 79 197 0.0 2.0 0.00 0.69 0.37 81 1011.7
20260905192318 78 198 0.0 2.0 0.00 0.69 0.37 82 1012.0
20260905191830 78 296 1.0 2.0 0.00 0.69 0.37 82 1012.0
20260905191342 78 62 0.0 1.0 0.00 0.69 0.37 82 1012.0
20260905190812 78 129 0.0 2.0 0.00 0.69 0.37 81 1012.1
20260905190324 78 105 0.0 3.0 0.00 0.69 0.37 82 1012.2
20260905185815 78 61 1.0 5.0 0.00 0.69 0.37 81 1012.3
20260905185328 78 157 1.0 5.0 0.00 0.69 0.37 85 1012.2
20260905184824 77 277 0.0 2.0 0.00 0.69 0.37 83 1012.3
20260905184315 76 314 0.0 1.0 0.00 0.72 0.37 84 1012.3
20260905183827 75 360 0.0 4.0 0.00 0.72 0.37 84 1012.3
20260905183319 75 360 1.0 4.0 0.00 0.72 0.37 85 1012.5
20260905182830 75 285 1.0 4.0 0.00 0.72 0.37 86 1012.6
20260905182322 75 24 2.0 4.0 0.00 0.72 0.37 87 1012.6
20260905181814 75 287 1.0 6.0 0.00 0.72 0.37 88 1012.6
20260905181326 75 360 2.0 6.0 0.00 0.72 0.37 88 1012.7
20260905180822 75 307 3.0 5.0 0.00 0.72 0.37 88 1012.8
20260905180334 75 296 1.0 5.0 0.00 0.72 0.37 88 1012.7
20260905175822 74 301 1.0 5.0 0.00 0.72 0.37 90 1012.8
20260905175314 74 309 1.0 5.0 0.00 0.72 0.37 90 1012.8
20260905174826 74 296 2.0 6.0 0.02 0.72 0.37 90 1012.8
20260905174318 73 9 3.0 6.0 0.15 0.72 0.37 91 1012.7
20260905173830 73 9 1.0 4.0 0.19 0.72 0.37 91 1012.7
20260905173323 72 284 1.0 4.0 0.22 0.72 0.37 92 1012.8
20260905172819 72 360 1.0 4.0 0.24 0.72 0.37 92 1012.8
20260905172330 71 9 2.0 4.0 0.26 0.72 0.37 92 1013.0
20260905171823 71 294 0.0 1.0 0.26 0.72 0.37 91 1013.0
20260905171314 71 299 0.0 1.0 0.34 0.72 0.37 92 1013.1
20260905170846 71 299 0.0 1.0 0.37 0.72 0.37 92 1013.1
20260905170317 71 299 0.0 0.0 0.37 0.72 0.37 93 1013.0
20260905165828 70 299 0.0 0.0 0.37 0.72 0.37 93 1013.2
20260905165340 70 298 0.0 3.0 0.37 0.72 0.37 93 1013.2
20260905164322 70 306 2.0 7.0 0.22 0.57 0.22 92 1013.6
20260905163818 71 284 4.0 7.0 0.17 0.52 0.17 92 1013.8
20260905163351 71 304 3.0 5.0 0.15 0.50 0.15 91 1013.6
20260905162821 72 50 2.0 8.0 0.13 0.48 0.13 91 1013.5
20260905162313 72 13 5.0 8.0 0.11 0.46 0.11 90 1013.6
20260905161825 73 46 1.0 4.0 0.11 0.46 0.11 89 1013.6
20260905161317 73 40 1.0 2.0 0.03 0.38 0.03 89 1013.7
20260905160829 74 69 0.0 2.0 0.00 0.35 0.00 89 1013.7
20260905160320 74 71 0.0 2.0 0.00 0.35 0.00 89 1013.7
20260905155814 74 71 0.0 2.0 0.00 0.35 0.00 89 1013.7
20260905155347 74 171 0.0 0.0 0.00 0.35 0.00 89 1013.8
20260905154818 73 171 0.0 0.0 0.00 0.35 0.00 89 1013.8
20260905154330 73 172 0.0 0.0 0.00 0.35 0.00 88 1013.9
20260905153842 73 171 0.0 0.0 0.00 0.35 0.00 88 1014.0
20260905153334 73 171 0.0 0.0 0.00 0.35 0.00 88 1014.0
20260905152825 73 171 0.0 0.0 0.00 0.35 0.00 89 1014.1
20260905152317 73 171 0.0 0.0 0.00 0.35 0.00 89 1014.1
20260905151850 73 171 0.0 0.0 0.00 0.35 0.00 89 1014.2
20260905151321 73 173 0.0 0.0 0.00 0.35 0.00 88 1014.2
20260905150813 73 173 0.0 0.0 0.00 0.35 0.00 89 1014.3
20260905150329 73 173 0.0 0.0 0.00 0.35 0.00 89 1014.3
20260905145819 73 173 0.0 0.0 0.00 0.35 0.00 88 1014.4
20260905145331 73 173 0.0 0.0 0.00 0.35 0.00 89 1014.4
20260905144843 72 305 0.0 0.0 0.00 0.35 0.00 89 1014.4
20260905144314 72 305 0.0 0.0 0.00 0.35 0.00 89 1014.4
20260905143825 72 305 0.0 0.0 0.00 0.35 0.00 89 1014.4
20260905143318 72 305 0.0 0.0 0.00 0.35 0.00 89 1014.3
20260905142851 72 306 0.0 0.0 0.00 0.35 0.00 89 1014.2
20260905142321 73 296 0.0 0.0 0.00 0.35 0.00 89 1014.1
20260905141817 73 299 0.0 0.0 0.00 0.35 0.00 89 1014.1
20260905141329 73 299 0.0 0.0 0.00 0.35 0.00 90 1014.1
20260905140821 73 299 0.0 0.0 0.00 0.35 0.00 90 1014.3
20260905140353 73 299 0.0 0.0 0.00 0.35 0.00 89 1014.3
20260905135822 73 299 0.0 0.0 0.00 0.35 0.00 89 1014.2
20260905135315 73 299 0.0 0.0 0.00 0.35 0.00 88 1014.2
20260905134826 73 299 0.0 0.0 0.00 0.35 0.00 88 1014.1
20260905134318 73 299 0.0 0.0 0.00 0.35 0.00 88 1014.2
20260905133830 73 300 0.0 3.0 0.00 0.35 0.00 88 1014.0
20260905133326 73 304 1.0 3.0 0.00 0.35 0.00 88 1013.8
20260905132818 73 293 2.0 4.0 0.00 0.35 0.00 88 1013.7
20260905132330 73 311 1.0 5.0 0.00 0.35 0.00 88 1013.5
20260905131821 73 313 3.0 5.0 0.00 0.35 0.00 87 1013.3
20260905131313 73 13 2.0 4.0 0.00 0.35 0.00 88 1013.2
20260905130825 73 306 2.0 4.0 0.00 0.35 0.00 88 1013.3
20260905130317 72 313 1.0 3.0 0.00 0.35 0.00 88 1013.4
20260905125829 73 311 0.0 2.0 0.00 0.35 0.00 88 1013.5
20260905125324 72 313 0.0 3.0 0.00 0.35 0.00 88 1013.7
20260905124816 72 292 1.0 3.0 0.00 0.35 0.00 88 1013.7
20260905124329 72 360 0.0 0.0 0.00 0.35 0.00 88 1013.8
20260905123820 72 13 0.0 0.0 0.00 0.35 0.00 88 1013.8
20260905123332 72 13 0.0 0.0 0.00 0.35 0.00 89 1013.8
20260905122824 72 13 0.0 0.0 0.00 0.35 0.00 88 1013.7
20260905122336 72 13 0.0 0.0 0.00 0.35 0.00 89 1013.6
20260905121827 72 13 0.0 0.0 0.00 0.35 0.00 89 1013.5
20260905121318 72 13 0.0 0.0 0.00 0.35 0.00 89 1013.6
20260905120834 72 13 0.0 0.0 0.00 0.35 0.00 89 1013.5
20260905120345 72 13 0.0 0.0 0.00 0.35 0.00 89 1013.4
20260905115815 72 13 0.0 0.0 0.00 0.35 0.00 89 1013.3
20260905115327 72 13 0.0 0.0 0.00 0.35 0.00 89 1013.2
20260905114819 71 13 0.0 0.0 0.00 0.35 0.00 89 1013.1
20260905114351 71 13 0.0 0.0 0.00 0.35 0.00 89 1013.1
20260905113822 71 13 0.0 0.0 0.00 0.35 0.00 89 1013.2
20260905113314 71 13 0.0 0.0 0.00 0.35 0.00 89 1013.3
20260905112826 71 13 0.0 0.0 0.00 0.35 0.00 89 1013.1
20260905112318 71 13 0.0 0.0 0.00 0.35 0.00 89 1013.0
20260905111814 71 15 0.0 1.0 0.00 0.35 0.00 89 1012.9
20260905111325 71 15 0.0 1.0 0.00 0.35 0.00 90 1012.8
20260905110818 70 44 0.0 1.0 0.00 0.35 0.00 90 1012.9
20260905110329 70 107 0.0 0.0 0.00 0.35 0.00 90 1012.8
20260905105820 70 107 0.0 0.0 0.00 0.35 0.00 91 1012.8
20260905105332 70 99 0.0 0.0 0.00 0.35 0.00 90 1012.8
20260905104824 70 102 0.0 0.0 0.00 0.35 0.00 90 1012.7
20260905104316 70 102 0.0 2.0 0.00 0.35 0.00 90 1012.9
20260905103832 70 102 0.0 2.0 0.00 0.35 0.00 90 1012.9
20260905103323 70 104 0.0 0.0 0.00 0.35 0.00 90 1012.8
20260905102835 70 292 0.0 0.0 0.00 0.35 0.00 89 1012.6
20260905102326 70 290 0.0 0.0 0.00 0.35 0.00 89 1012.5
20260905101818 70 290 0.0 0.0 0.00 0.35 0.00 88 1012.4
20260905101350 70 290 0.0 0.0 0.00 0.35 0.00 88 1012.4
20260905100821 71 291 0.0 0.0 0.00 0.35 0.00 87 1012.4
20260905100333 71 291 0.0 1.0 0.00 0.35 0.00 87 1012.3
20260905095824 71 291 0.0 2.0 0.00 0.35 0.00 87 1012.3
20260905095320 71 292 0.0 2.0 0.00 0.35 0.00 88 1012.2
20260905094831 71 55 0.0 2.0 0.00 0.35 0.00 88 1012.2
20260905094323 71 94 0.0 2.0 0.00 0.35 0.00 88 1012.3
20260905093815 71 171 0.0 5.0 0.00 0.35 0.00 88 1012.3
20260905093326 71 306 0.0 3.0 0.00 0.35 0.00 88 1012.4
20260905092819 71 132 1.0 3.0 0.00 0.35 0.00 88 1012.4
20260905092351 71 294 1.0 3.0 0.00 0.35 0.00 88 1012.3
20260905091821 71 34 0.0 3.0 0.00 0.35 0.00 87 1012.2
20260905091313 71 117 0.0 4.0 0.00 0.35 0.00 87 1012.1
20260905090829 71 38 0.0 2.0 0.00 0.35 0.00 87 1012.1
20260905090321 71 300 0.0 3.0 0.00 0.35 0.00 87 1012.2
20260905085831 71 117 0.0 4.0 0.00 0.35 0.00 87 1012.1
20260905085323 71 76 0.0 4.0 0.00 0.35 0.00 87 1012.3
20260905084815 71 107 0.0 4.0 0.00 0.35 0.00 86 1012.2
20260905084329 71 77 0.0 4.0 0.00 0.35 0.00 86 1012.3
20260905083820 71 155 1.0 5.0 0.00 0.35 0.00 87 1012.3
20260905083332 70 104 0.0 6.0 0.00 0.35 0.00 87 1012.2
20260905082828 70 162 2.0 6.0 0.00 0.35 0.00 87 1012.2
20260905082320 70 135 0.0 3.0 0.00 0.35 0.00 88 1012.3
20260905081831 70 154 1.0 4.0 0.00 0.35 0.00 88 1012.3
20260905081344 70 148 1.0 4.0 0.00 0.35 0.00 87 1012.4
20260905080815 70 165 1.0 3.0 0.00 0.35 0.00 87 1012.4
20260905080327 70 130 0.0 1.0 0.00 0.35 0.00 87 1012.4
20260905075817 70 115 0.0 1.0 0.00 0.35 0.00 87 1012.5
20260905075329 70 106 0.0 2.0 0.00 0.35 0.00 87 1012.5
20260905074820 70 169 0.0 2.0 0.00 0.35 0.00 87 1012.5
20260905074316 70 178 0.0 2.0 0.00 0.35 0.00 87 1012.5
20260905073849 70 169 0.0 3.0 0.00 0.35 0.00 87 1012.6
20260905073340 70 192 0.0 3.0 0.00 0.35 0.00 87 1012.6
20260905072830 70 167 0.0 2.0 0.00 0.35 0.00 87 1012.7
20260905072322 70 132 0.0 1.0 0.00 0.35 0.00 87 1012.7
20260905071814 70 96 0.0 1.0 0.00 0.35 0.00 87 1012.7
20260905071325 70 96 0.0 1.0 0.00 0.35 0.00 88 1012.8
20260905070817 70 98 0.0 1.0 0.00 0.35 0.00 88 1012.9
20260905070330 70 160 0.0 1.0 0.00 0.35 0.00 88 1013.0
20260905065823 70 169 0.0 2.0 0.00 0.35 0.00 88 1013.1
20260905065315 69 171 0.0 1.0 0.00 0.35 0.00 88 1013.1
20260905064826 69 169 0.0 3.0 0.00 0.35 0.00 88 1013.2
20260905064318 70 171 0.0 4.0 0.00 0.35 0.00 88 1013.3
20260905063850 70 175 0.0 4.0 0.00 0.35 0.00 88 1013.3
20260905063320 70 174 0.0 3.0 0.00 0.35 0.00 88 1013.4
20260905062832 70 165 0.0 3.0 0.00 0.35 0.00 88 1013.4
20260905062324 70 177 0.0 2.0 0.00 0.35 0.00 88 1013.5
20260905061816 70 160 0.0 2.0 0.00 0.35 0.00 87 1013.7
20260905061332 70 171 0.0 1.0 0.00 0.35 0.00 87 1013.7
20260905060824 70 176 0.0 2.0 0.00 0.35 0.00 87 1013.8
20260905060316 71 169 0.0 2.0 0.00 0.35 0.00 87 1013.9
20260905055826 71 165 0.0 3.0 0.00 0.35 0.00 87 1014.0
20260905055318 71 165 1.0 5.0 0.00 0.35 0.00 87 1014.0
20260905054830 70 176 1.0 6.0 0.00 0.35 0.00 87 1014.0
20260905054322 70 182 1.0 4.0 0.00 0.35 0.00 88 1014.1
20260905053814 70 161 1.0 5.0 0.00 0.35 0.00 88 1014.2
20260905053330 70 148 1.0 5.0 0.00 0.35 0.00 88 1014.3
20260905052821 70 182 1.0 4.0 0.00 0.35 0.00 88 1014.4
20260905052313 70 163 0.0 2.0 0.00 0.35 0.00 88 1014.4
20260905051845 70 153 0.0 1.0 0.00 0.35 0.00 88 1014.4
20260905051316 70 153 0.0 1.0 0.00 0.35 0.00 88 1014.4
20260905050828 71 151 0.0 2.0 0.00 0.35 0.00 87 1014.4
20260905050320 71 122 0.0 2.0 0.00 0.35 0.00 87 1014.5
20260905045851 71 100 0.0 4.0 0.00 0.35 0.00 86 1014.7
20260905045343 71 171 0.0 4.0 0.00 0.35 0.00 86 1014.6
20260905044814 71 126 1.0 3.0 0.00 0.35 0.00 86 1014.6
20260905044346 71 150 1.0 3.0 0.00 0.38 0.00 85 1014.6
20260905043823 72 167 0.0 5.0 0.00 0.38 0.00 85 1014.6
20260905043333 72 161 1.0 5.0 0.00 0.38 0.00 85 1014.6
20260905042822 71 177 1.0 8.0 0.00 0.38 0.00 86 1014.7
20260905042354 71 192 3.0 8.0 0.00 0.38 0.00 86 1014.7
20260905041845 71 148 1.0 6.0 0.00 0.38 0.00 87 1014.7
20260905041314 71 155 2.0 4.0 0.00 0.38 0.00 86 1014.7
20260905040825 71 181 2.0 6.0 0.00 0.38 0.00 86 1014.7
20260905040338 71 180 2.0 6.0 0.00 0.38 0.00 86 1014.7
20260905035847 71 157 3.0 6.0 0.00 0.38 0.00 86 1014.8
20260905035318 71 173 2.0 5.0 0.00 0.38 0.00 86 1014.8
20260905034814 71 171 3.0 7.0 0.00 0.38 0.00 87 1014.8
20260905034325 71 171 3.0 6.0 0.00 0.64 0.38 87 1014.8
20260905033817 71 167 4.0 6.0 0.00 0.64 0.38 87 1014.8
20260905033330 71 171 3.0 5.0 0.00 0.64 0.38 88 1014.7
20260905032821 71 190 2.0 7.0 0.00 0.64 0.38 88 1014.7
20260905032313 71 165 2.0 4.0 0.00 0.64 0.38 88 1014.9
20260905031825 72 163 1.0 6.0 0.00 0.64 0.38 87 1015.0
20260905031316 72 167 2.0 6.0 0.00 0.64 0.38 87 1014.9
20260905030829 72 166 1.0 4.0 0.00 0.64 0.38 87 1014.8
20260905030345 72 168 0.0 3.0 0.00 0.64 0.38 87 1014.8
20260905025814 72 167 1.0 4.0 0.00 0.64 0.38 87 1014.8
20260905025326 72 164 1.0 4.0 0.00 0.64 0.38 86 1014.8
20260905024838 72 165 1.0 5.0 0.00 0.64 0.38 86 1014.9
20260905024329 72 169 1.0 5.0 0.00 0.64 0.38 86 1014.8
20260905023820 72 172 0.0 5.0 0.00 0.64 0.38 86 1014.8
20260905023333 73 140 1.0 5.0 0.00 0.64 0.38 86 1014.7
20260905022824 73 165 0.0 6.0 0.00 0.64 0.38 85 1014.6
20260905022316 73 180 1.0 6.0 0.00 0.64 0.38 85 1014.6
20260905021831 73 161 1.0 4.0 0.00 0.64 0.38 84 1014.6
20260905021323 73 40 0.0 3.0 0.00 0.64 0.38 84 1014.5
20260905020815 73 119 1.0 3.0 0.00 0.64 0.38 84 1014.4
20260905020327 73 138 0.0 2.0 0.00 0.64 0.38 84 1014.3
20260905015836 73 158 1.0 2.0 0.00 0.64 0.38 84 1014.2
20260905015327 73 144 0.0 3.0 0.00 0.64 0.38 84 1014.1
20260905014839 73 122 0.0 4.0 0.00 0.64 0.38 84 1014.1
20260905014350 73 82 0.0 3.0 0.00 0.64 0.38 84 1014.0
20260905013821 73 299 0.0 3.0 0.00 0.64 0.38 84 1014.0
20260905013333 73 123 0.0 5.0 0.00 0.64 0.38 84 1014.0
20260905012829 74 123 1.0 5.0 0.00 0.64 0.38 83 1013.9
20260905012320 74 242 0.0 4.0 0.00 0.64 0.38 84 1013.8
20260905011832 74 104 1.0 4.0 0.00 0.64 0.38 83 1013.9
20260905011324 74 149 0.0 6.0 0.00 0.64 0.38 83 1013.8
20260905010816 74 103 1.0 6.0 0.00 0.64 0.38 83 1013.8
20260905010328 74 134 0.0 3.0 0.00 0.64 0.38 84 1013.9
20260905005819 74 139 1.0 4.0 0.00 0.64 0.38 83 1013.9
20260905005331 74 159 1.0 4.0 0.00 0.64 0.38 84 1013.9
20260905004826 74 159 1.0 5.0 0.00 0.64 0.38 84 1013.9
20260905004318 74 196 1.0 6.0 0.00 0.64 0.38 84 1013.8
20260905003830 74 161 1.0 4.0 0.00 0.64 0.38 84 1013.9
20260905003322 74 161 1.0 5.0 0.00 0.64 0.38 84 1013.9
20260905002814 74 170 1.0 5.0 0.00 0.64 0.38 84 1013.9
20260905002325 74 140 0.0 3.0 0.00 0.64 0.38 84 1013.8
20260905001818 74 131 0.0 7.0 0.00 0.64 0.38 84 1013.8
20260905001330 73 150 1.0 5.0 0.00 0.64 0.38 86 1013.6
20260905000825 74 142 1.0 6.0 0.00 0.64 0.38 87 1013.6
20260905000318 74 156 1.0 4.0 0.00 0.64 0.38 86 1013.7
20260904235849 74 148 1.0 3.0 0.00 0.64 0.38 86 1013.7
20260904235320 74 109 0.0 3.0 0.00 0.64 0.38 85 1013.8
20260904234832 74 119 1.0 4.0 0.00 0.64 0.38 83 1013.7
20260904234323 75 115 0.0 4.0 0.00 0.64 0.38 83 1013.7
20260904233815 75 114 1.0 3.0 0.00 0.64 0.38 82 1013.7
20260904233327 75 120 1.0 5.0 0.00 0.64 0.38 82 1013.8
20260904232819 75 147 0.0 3.0 0.00 0.64 0.38 83 1013.8
20260904232315 75 125 0.0 5.0 0.00 0.64 0.38 83 1013.8
20260904231827 75 155 1.0 5.0 0.00 0.64 0.38 83 1013.8
20260904231318 74 168 0.0 4.0 0.00 0.64 0.38 84 1013.8
20260904230831 74 168 0.0 5.0 0.00 0.64 0.38 85 1013.9
20260904230322 74 144 0.0 1.0 0.00 0.64 0.38 86 1013.9
20260904225832 74 142 0.0 3.0 0.00 0.64 0.38 86 1014.1
20260904225324 74 165 0.0 3.0 0.00 0.64 0.38 87 1013.8
20260904224816 75 181 0.0 2.0 0.00 0.64 0.38 87 1013.9
20260904224331 74 136 0.0 3.0 0.00 0.64 0.38 86 1014.0
20260904223823 74 162 0.0 6.0 0.00 0.64 0.38 87 1014.0
20260904223314 74 138 0.0 2.0 0.00 0.64 0.38 87 1014.2
20260904222846 74 155 0.0 2.0 0.00 0.64 0.38 86 1014.3
20260904222317 74 161 0.0 5.0 0.00 0.64 0.38 86 1014.2
20260904221830 74 165 2.0 5.0 0.00 0.64 0.38 87 1014.5
20260904221341 74 171 2.0 5.0 0.00 0.64 0.38 87 1014.5
20260904220832 74 157 2.0 4.0 0.00 0.64 0.38 88 1014.4
20260904220324 74 178 3.0 5.0 0.00 0.64 0.38 88 1014.3
20260904215818 74 169 2.0 4.0 0.00 0.64 0.38 88 1014.2
20260904215350 74 153 2.0 5.0 0.00 0.64 0.38 89 1014.2
20260904214820 74 188 2.0 5.0 0.00 0.64 0.38 89 1014.2